Indiana, PA

6:12 AM EST on February 08, 2016 (GMT -0500)
Indiana County-Stewart

Weather History for KIDI - April, 2014

Change the Weather History Date:

Friday, April 4, 2014

  Actual Average Record
Temperature  
Mean Temperature 50 °F -  
Max Temperature 55 °F 55 °F 80 °F (1950)
Min Temperature 44 °F 35 °F 14 °F (1954)
Degree Days  
Heating Degree Days 14    
Moisture  
Dew Point 47 °F    
Average Humidity 90    
Maximum Humidity 100    
Minimum Humidity 71    
Precipitation  
Precipitation 0.36 in - - ()
Sea Level Pressure  
Sea Level Pressure 29.72 in    
Wind  
Wind Speed 10 mph (SSE)    
Max Wind Speed 18 mph    
Max Gust Speed 32 mph    
Visibility 9 miles    
Events      
Averages and records for this station are not official NWS values.
T = Trace of Precipitation, MM = Missing Value Source: NWS Daily Summary

Daily Weather History Graph

Daily Weather History Graph

Search for Another Location

Airport or City:

Trip Planner

Search our weather history database for the weather conditions in past years. The results will help you decide how hot, cold, wet, or windy it might be!

Date:

Astronomy

Apr. 04, 2014 Rise Set
Actual Time 6:55 AM EDT 7:44 PM EDT
Civil Twilight 6:27 AM EDT 8:12 PM EDT
Nautical Twilight 5:54 AM EDT 8:44 PM EDT
Astronomical Twilight 5:20 AM EDT 9:19 PM EDT
Moon 10:09 AM EDT (4/4) 12:02 AM EDT (4/4)
Length of Visible Light 13h 44m
Length of Day
12h 49m
Waxing Crescent, 25% of the Moon is Illuminated
Apr 4
Waxing Crescent
Apr 7
First Quarter
Apr 15
Full
Apr 22
Last Quarter
Apr 29
New

Hourly Weather History & Observations

Time (EDT) Temp. Windchill Dew Point Humidity Pressure Visibility Wind Dir Wind Speed Gust Speed Precip Events Conditions
12:15 AM 48.2 °F - 46.4 °F 93% 29.84 in 10.0 mi SE 13.8 mph - N/A   Overcast
12:35 AM 48.2 °F - 46.4 °F 93% 29.83 in 10.0 mi SE 10.4 mph - N/A   Overcast
12:55 AM 48.2 °F - 46.4 °F 93% 29.82 in 10.0 mi SE 9.2 mph - N/A   Overcast
1:15 AM 50.0 °F - 46.4 °F 87% 29.81 in 10.0 mi SE 10.4 mph - N/A   Overcast
1:35 AM 50.0 °F - 46.4 °F 87% 29.81 in 10.0 mi SE 9.2 mph - N/A   Overcast
1:55 AM 50.0 °F - 48.2 °F 94% 29.81 in 10.0 mi SE 10.4 mph - N/A   Overcast
2:15 AM 50.0 °F - 48.2 °F 94% 29.81 in 10.0 mi SE 5.8 mph - N/A   Overcast
2:35 AM 50.0 °F - 48.2 °F 94% 29.81 in 10.0 mi ESE 6.9 mph - N/A   Overcast
2:55 AM 50.0 °F - 48.2 °F 94% 29.81 in 10.0 mi East 3.5 mph - N/A   Overcast
3:15 AM 50.0 °F - 48.2 °F 94% 29.81 in 7.0 mi ESE 4.6 mph - N/A   Overcast
3:35 AM 48.2 °F - 48.2 °F 100% 29.80 in 10.0 mi ESE 6.9 mph - N/A   Overcast
3:55 AM 48.2 °F - 48.2 °F 100% 29.79 in 7.0 mi ESE 6.9 mph - N/A   Overcast
4:15 AM 48.2 °F - 48.2 °F 100% 29.79 in 10.0 mi East 3.5 mph - N/A   Overcast
4:35 AM 50.0 °F - 48.2 °F 94% 29.79 in 10.0 mi East 4.6 mph - N/A   Overcast
4:55 AM 48.2 °F - 48.2 °F 100% 29.79 in 10.0 mi ESE 4.6 mph - N/A   Overcast
5:15 AM 50.0 °F - 48.2 °F 94% 29.80 in 10.0 mi ESE 6.9 mph - N/A   Overcast
5:35 AM 50.0 °F - 48.2 °F 94% 29.80 in 10.0 mi ESE 5.8 mph - N/A   Overcast
5:55 AM 48.2 °F - 48.2 °F 100% 29.79 in 7.0 mi ESE 11.5 mph - N/A   Overcast
6:15 AM 48.2 °F - 48.2 °F 100% 29.79 in 7.0 mi ESE 8.1 mph - N/A   Overcast
6:35 AM 48.2 °F - 46.4 °F 93% 29.80 in 10.0 mi SE 6.9 mph - N/A   Overcast
6:55 AM 48.2 °F - 46.4 °F 93% 29.80 in 10.0 mi SE 10.4 mph - N/A   Overcast
7:15 AM 48.2 °F - 46.4 °F 93% 29.80 in 10.0 mi SE 11.5 mph - N/A   Overcast
7:35 AM 50.0 °F - 46.4 °F 87% 29.79 in 10.0 mi SE 11.5 mph - N/A   Overcast
7:55 AM 50.0 °F - 46.4 °F 87% 29.79 in 10.0 mi SE 10.4 mph - N/A   Overcast
8:15 AM 50.0 °F - 46.4 °F 87% 29.78 in 10.0 mi SE 10.4 mph 18.4 mph N/A   Overcast
8:35 AM 50.0 °F - 46.4 °F 87% 29.78 in 10.0 mi SSE 8.1 mph 19.6 mph N/A   Overcast
8:55 AM 50.0 °F - 46.4 °F 87% 29.78 in 10.0 mi SSE 12.7 mph 18.4 mph N/A   Overcast
9:15 AM 50.0 °F - 46.4 °F 87% 29.78 in 7.0 mi SSE 12.7 mph 19.6 mph N/A   Overcast
9:35 AM 48.2 °F - 46.4 °F 93% 29.75 in 5.0 mi ESE 13.8 mph 19.6 mph N/A   Overcast
9:55 AM 48.2 °F - 46.4 °F 93% 29.76 in 5.0 mi SSE 15.0 mph 23.0 mph 0.02 in   Scattered Clouds
10:15 AM 50.0 °F - 46.4 °F 87% 29.74 in 7.0 mi SE 11.5 mph 19.6 mph N/A   Scattered Clouds
10:35 AM 50.0 °F - 46.4 °F 87% 29.72 in 10.0 mi SE 16.1 mph 20.7 mph N/A   Mostly Cloudy
10:55 AM 50.0 °F - 46.4 °F 87% 29.72 in 10.0 mi SE 17.3 mph 23.0 mph N/A   Mostly Cloudy
11:15 AM 51.8 °F - 46.4 °F 82% 29.70 in 10.0 mi SE 12.7 mph 19.6 mph N/A   Overcast
11:35 AM 51.8 °F - 46.4 °F 82% 29.70 in 10.0 mi SE 10.4 mph 17.3 mph N/A   Overcast
11:55 AM 51.8 °F - 46.4 °F 82% 29.69 in 10.0 mi ESE 5.8 mph - N/A   Overcast
12:15 PM 51.8 °F - 46.4 °F 82% 29.67 in 10.0 mi SSE 13.8 mph 24.2 mph N/A   Overcast
12:35 PM 51.8 °F - 46.4 °F 82% 29.66 in 10.0 mi SSE 11.5 mph 19.6 mph N/A   Overcast
12:55 PM 51.8 °F - 46.4 °F 82% 29.65 in 10.0 mi SSE 15.0 mph 25.3 mph N/A   Overcast
1:15 PM 51.8 °F - 46.4 °F 82% 29.66 in 10.0 mi South 8.1 mph 23.0 mph N/A   Overcast
1:35 PM 48.2 °F - 46.4 °F 93% 29.67 in 7.0 mi SSE 17.3 mph 25.3 mph 0.06 in   Overcast
1:55 PM 48.2 °F - 46.4 °F 93% 29.66 in 3.0 mi SSE 13.8 mph 24.2 mph 0.12 in   Overcast
2:15 PM 48.2 °F - 46.4 °F 93% 29.63 in 7.0 mi SE 13.8 mph 23.0 mph 0.05 in   Overcast
2:35 PM 48.2 °F - 46.4 °F 93% 29.62 in 10.0 mi SSE 12.7 mph 23.0 mph 0.05 in   Mostly Cloudy
2:55 PM 48.2 °F - 46.4 °F 93% 29.61 in 10.0 mi SSE 12.7 mph 23.0 mph 0.06 in   Overcast
3:15 PM 48.2 °F - 46.4 °F 93% 29.62 in 7.0 mi South 12.7 mph 17.3 mph 0.01 in   Overcast
3:35 PM 48.2 °F - 46.4 °F 93% 29.64 in 7.0 mi South 5.8 mph - 0.05 in   Overcast
3:55 PM 48.2 °F - 48.2 °F 100% 29.61 in 10.0 mi SSE 9.2 mph - 0.07 in   Overcast
4:15 PM 50.0 °F - 48.2 °F 94% 29.61 in 10.0 mi SSE 10.4 mph 18.4 mph N/A   Overcast
4:55 PM 51.8 °F - 48.2 °F 88% 29.59 in 10.0 mi SSE 5.8 mph 18.4 mph N/A   Overcast
5:15 PM 51.8 °F - 48.2 °F 88% 29.58 in 10.0 mi SE 6.9 mph - N/A   Overcast
5:35 PM 53.6 °F - 50.0 °F 88% 29.58 in 10.0 mi SSE 11.5 mph 17.3 mph N/A   Mostly Cloudy
5:55 PM 53.6 °F - 50.0 °F 88% 29.58 in 5.0 mi SSE 9.2 mph - 0.01 in   Mostly Cloudy
6:15 PM 53.6 °F - 50.0 °F 88% 29.59 in 7.0 mi SSE 5.8 mph - 0.04 in   Overcast
6:35 PM 53.6 °F - 51.8 °F 94% 29.60 in 10.0 mi SSE 5.8 mph - 0.05 in   Mostly Cloudy
6:55 PM 53.6 °F - 51.8 °F 94% 29.60 in 10.0 mi South 4.6 mph - 0.05 in   Mostly Cloudy
7:15 PM 53.6 °F - 51.8 °F 94% 29.60 in 7.0 mi South 9.2 mph - N/A   Mostly Cloudy
7:35 PM 53.6 °F - 53.6 °F 100% 29.61 in 10.0 mi SSW 5.8 mph - 0.01 in   Scattered Clouds
7:55 PM 53.6 °F - 53.6 °F 100% 29.62 in 10.0 mi South 4.6 mph - 0.01 in   Scattered Clouds
8:15 PM 53.6 °F - 53.6 °F 100% 29.63 in 7.0 mi WSW 5.8 mph - N/A   Mostly Cloudy
8:35 PM 55.4 °F - 51.8 °F 88% 29.64 in 10.0 mi West 13.8 mph 26.5 mph 0.02 in   Mostly Cloudy
8:55 PM 55.4 °F - 51.8 °F 88% 29.66 in 10.0 mi West 16.1 mph 26.5 mph 0.02 in   Scattered Clouds
9:15 PM 55.4 °F - 51.8 °F 88% 29.67 in 10.0 mi West 11.5 mph - N/A   Mostly Cloudy
9:35 PM 53.6 °F - 51.8 °F 94% 29.68 in 10.0 mi West 11.5 mph 16.1 mph N/A   Scattered Clouds
9:55 PM 55.4 °F - 51.8 °F 88% 29.69 in 10.0 mi West 12.7 mph 20.7 mph N/A   Mostly Cloudy
10:15 PM 53.6 °F - 46.4 °F 77% 29.71 in 10.0 mi West 17.3 mph 27.6 mph N/A   Overcast
10:35 PM 51.8 °F - 44.6 °F 76% 29.72 in 10.0 mi West 17.3 mph 28.8 mph N/A   Mostly Cloudy
10:55 PM 50.0 °F - 41.0 °F 71% 29.74 in 10.0 mi WNW 17.3 mph 32.2 mph N/A   Mostly Cloudy
11:15 PM 48.2 °F - 39.2 °F 71% 29.75 in 10.0 mi WNW 13.8 mph 27.6 mph N/A   Overcast
11:35 PM 46.4 °F 39.2 °F 37.4 °F 71% 29.76 in 10.0 mi West 18.4 mph 31.1 mph N/A   Overcast
11:55 PM 44.6 °F 38.1 °F 35.6 °F 71% 29.77 in 10.0 mi West 13.8 mph 28.8 mph N/A   Scattered Clouds